THY3NT LTAL-LTFM

Flight info

Callsign THY3NT
Flight time 0h 49m
Altitude 32000
Route INB1C/18 INB UW702 GUMRU UT315 NUGBA
Aircraft A320/M-SDE3FGHIRWY/LB1

Departure

Time 2026-05-08 18:53
Airport Kastamonu Airport (LTAL)

Arrival

Time 2026-05-08 19:42
Airport İstanbul Airport (LTFM)
Time Latitude Longitude Altitude Speed Heading
2026-05-08 18:05 41.31618 33.79932 3486 ft 0 kts 144°
2026-05-08 18:34 41.31617 33.79933 3488 ft 0 kts 144°
2026-05-08 18:43 41.31616 33.79934 3488 ft 2 kts 146°
2026-05-08 18:43 41.31601 33.79931 3485 ft 1 kts 230°
2026-05-08 18:44 41.31597 33.79915 3485 ft 5 kts 252°
2026-05-08 18:45 41.31601 33.79891 3489 ft 1 kts 295°
2026-05-08 18:45 41.31620 33.79874 3503 ft 5 kts 339°
2026-05-08 18:45 41.31650 33.79862 3495 ft 4 kts 339°
2026-05-08 18:45 41.31672 33.79842 3496 ft 3 kts 315°
2026-05-08 18:46 41.31682 33.79817 3494 ft 3 kts 285°
2026-05-08 18:46 41.31686 33.79791 3493 ft 3 kts 280°
2026-05-08 18:46 41.31689 33.79760 3497 ft 5 kts 277°
2026-05-08 18:46 41.31684 33.79691 3495 ft 10 kts 255°
2026-05-08 18:47 41.31635 33.79627 3493 ft 10 kts 194°
2026-05-08 18:47 41.31566 33.79614 3496 ft 10 kts 187°
2026-05-08 18:47 41.31492 33.79603 3498 ft 12 kts 186°
2026-05-08 18:47 41.31399 33.79589 3495 ft 15 kts 186°
2026-05-08 18:48 41.31286 33.79573 3498 ft 17 kts 186°
2026-05-08 18:48 41.31172 33.79555 3499 ft 17 kts 186°
2026-05-08 18:48 41.31048 33.79539 3502 ft 20 kts 186°
2026-05-08 18:48 41.30908 33.79517 3497 ft 20 kts 186°
2026-05-08 18:49 41.30770 33.79497 3503 ft 21 kts 186°
2026-05-08 18:49 41.30623 33.79475 3500 ft 22 kts 186°
2026-05-08 18:49 41.30499 33.79458 3496 ft 15 kts 187°
2026-05-08 18:49 41.30432 33.79404 3491 ft 10 kts 229°
2026-05-08 18:50 41.30395 33.79426 3493 ft 6 kts 91°
2026-05-08 18:50 41.30412 33.79440 3492 ft 0 kts 15°
2026-05-08 18:50 41.30413 33.79440 3492 ft 0 kts 15°
2026-05-08 18:51 41.30415 33.79441 3492 ft 0 kts 15°
2026-05-08 18:51 41.30417 33.79442 3492 ft 0 kts 17°
2026-05-08 18:51 41.30418 33.79442 3492 ft 0 kts 14°
2026-05-08 18:52 41.30436 33.79447 3496 ft 17 kts 11°
2026-05-08 18:52 41.30828 33.79505 3501 ft 93 kts
2026-05-08 18:52 41.31672 33.79629 3496 ft 148 kts
2026-05-08 18:53 41.32788 33.79809 3825 ft 166 kts
2026-05-08 18:53 41.33938 33.79990 4481 ft 167 kts
2026-05-08 18:53 41.35097 33.80179 5150 ft 170 kts
2026-05-08 18:53 41.36287 33.80356 5750 ft 173 kts
2026-05-08 18:54 41.37509 33.80526 6142 ft 182 kts
2026-05-08 18:54 41.38797 33.80721 6464 ft 197 kts
2026-05-08 18:54 41.40240 33.80935 6667 ft 221 kts
2026-05-08 18:54 41.41855 33.81171 6912 ft 246 kts
2026-05-08 18:55 41.45550 33.81669 7851 ft 280 kts 358°
2026-05-08 18:55 41.47486 33.81322 8623 ft 283 kts 347°
2026-05-08 18:55 41.49434 33.80829 9428 ft 286 kts 347°
2026-05-08 18:56 41.51398 33.80322 10232 ft 289 kts 347°
2026-05-08 18:56 41.53425 33.79796 10635 ft 307 kts 347°
2026-05-08 18:56 41.55603 33.79230 10811 ft 330 kts 347°
2026-05-08 18:56 41.57920 33.78631 11138 ft 346 kts 347°
2026-05-08 18:57 41.60307 33.78019 11738 ft 352 kts 347°
2026-05-08 18:57 41.61904 33.77611 12174 ft 354 kts 348°
2026-05-08 18:57 41.65168 33.76784 13081 ft 359 kts 348°
2026-05-08 18:57 41.67631 33.76159 13766 ft 362 kts 348°
2026-05-08 18:58 41.70118 33.75525 14375 ft 365 kts 348°
2026-05-08 18:58 41.72626 33.74883 14961 ft 368 kts 348°
2026-05-08 18:58 41.75158 33.74231 15530 ft 372 kts 348°
2026-05-08 18:58 41.77674 33.73581 16092 ft 375 kts 348°
2026-05-08 18:59 41.80247 33.72925 16664 ft 378 kts 349°
2026-05-08 18:59 41.82859 33.72378 17239 ft 382 kts 351°
2026-05-08 18:59 41.85510 33.71945 17828 ft 386 kts 352°
2026-05-08 18:59 41.88123 33.71152 18401 ft 387 kts 337°
2026-05-08 19:00 41.90446 33.69333 18918 ft 388 kts 318°
2026-05-08 19:00 41.92193 33.66586 19464 ft 389 kts 300°
2026-05-08 19:00 41.93195 33.63215 20013 ft 391 kts 282°
2026-05-08 19:00 41.93362 33.59562 20563 ft 395 kts 264°
2026-05-08 19:01 41.92863 33.55925 21094 ft 398 kts 258°
2026-05-08 19:01 41.92291 33.52274 21606 ft 401 kts 258°
2026-05-08 19:01 41.91711 33.48600 22092 ft 404 kts 258°
2026-05-08 19:01 41.91124 33.44901 22579 ft 407 kts 258°
2026-05-08 19:02 41.90532 33.41172 23034 ft 410 kts 258°
2026-05-08 19:02 41.89935 33.37424 23488 ft 412 kts 258°
2026-05-08 19:02 41.89334 33.33644 23904 ft 415 kts 258°
2026-05-08 19:02 41.88727 33.29845 24288 ft 417 kts 259°
2026-05-08 19:03 41.88117 33.26027 24674 ft 419 kts 259°
2026-05-08 19:03 41.87505 33.22195 25046 ft 421 kts 259°
2026-05-08 19:03 41.86892 33.18348 25421 ft 423 kts 259°
2026-05-08 19:03 41.86274 33.14481 25778 ft 425 kts 259°
2026-05-08 19:04 41.85652 33.10601 26138 ft 426 kts 259°
2026-05-08 19:04 41.85026 33.06707 26507 ft 428 kts 259°
2026-05-08 19:04 41.84395 33.02793 26869 ft 430 kts 259°
2026-05-08 19:04 41.83758 32.98863 27218 ft 432 kts 259°
2026-05-08 19:05 41.83115 32.94914 27566 ft 434 kts 259°
2026-05-08 19:05 41.82472 32.90956 27909 ft 436 kts 259°
2026-05-08 19:05 41.81825 32.86976 28258 ft 438 kts 259°
2026-05-08 19:05 41.81175 32.82980 28594 ft 440 kts 259°
2026-05-08 19:06 41.80529 32.79034 29042 ft 439 kts 259°
2026-05-08 19:06 41.79875 32.75046 29526 ft 437 kts 259°
2026-05-08 19:06 41.79219 32.71075 30031 ft 436 kts 259°
2026-05-08 19:06 41.78561 32.67120 30466 ft 434 kts 259°
2026-05-08 19:07 41.77905 32.63175 30883 ft 433 kts 259°
2026-05-08 19:07 41.77253 32.59248 31341 ft 431 kts 259°
2026-05-08 19:07 41.76602 32.55341 31782 ft 429 kts 259°
2026-05-08 19:07 41.75954 32.51448 32065 ft 428 kts 260°
2026-05-08 19:08 41.75306 32.47550 32124 ft 431 kts 260°
2026-05-08 19:08 41.73998 32.39681 32130 ft 433 kts 259°
2026-05-08 19:09 41.72672 32.31797 32117 ft 435 kts 259°
2026-05-08 19:09 41.71306 32.23903 32119 ft 436 kts 258°
2026-05-08 19:10 41.69870 32.16019 32125 ft 436 kts 258°
2026-05-08 19:10 41.68423 32.08140 32128 ft 436 kts 258°
2026-05-08 19:11 41.66988 32.00259 32123 ft 436 kts 258°
2026-05-08 19:11 41.65556 31.92375 32116 ft 436 kts 258°
2026-05-08 19:12 41.64130 31.84551 32124 ft 436 kts 257°
2026-05-08 19:12 41.62675 31.76678 32125 ft 436 kts 257°
2026-05-08 19:13 41.61213 31.68807 32120 ft 436 kts 257°
2026-05-08 19:13 41.59812 31.61263 32122 ft 437 kts 257°
2026-05-08 19:14 41.58350 31.53393 32117 ft 436 kts 257°
2026-05-08 19:14 41.56885 31.45532 32118 ft 436 kts 257°
2026-05-08 19:15 41.55442 31.37669 32112 ft 435 kts 261°
2026-05-08 19:15 41.55227 31.29644 32110 ft 434 kts 275°
2026-05-08 19:16 41.55754 31.21613 32101 ft 435 kts 275°
2026-05-08 19:16 41.56013 31.17585 31919 ft 436 kts 275°
2026-05-08 19:16 41.56270 31.13553 31664 ft 436 kts 275°
2026-05-08 19:16 41.56527 31.09515 31415 ft 437 kts 275°
2026-05-08 19:17 41.56785 31.05474 31170 ft 437 kts 275°
2026-05-08 19:17 41.57038 31.01426 30925 ft 438 kts 275°
2026-05-08 19:17 41.57290 30.97377 30446 ft 437 kts 275°
2026-05-08 19:17 41.57542 30.93352 29353 ft 443 kts 274°
2026-05-08 19:18 41.57796 30.89263 28702 ft 439 kts 274°
2026-05-08 19:18 41.58043 30.85232 28111 ft 433 kts 274°
2026-05-08 19:18 41.58244 30.81260 27763 ft 422 kts 272°
2026-05-08 19:18 41.58331 30.77412 27663 ft 407 kts 270°
2026-05-08 19:19 41.58344 30.73685 27573 ft 399 kts 270°
2026-05-08 19:19 41.58328 30.69961 27482 ft 402 kts 269°
2026-05-08 19:19 41.58305 30.66221 27394 ft 403 kts 269°
2026-05-08 19:19 41.58293 30.62477 27270 ft 407 kts 270°
2026-05-08 19:20 41.58292 30.58617 27016 ft 422 kts 270°
2026-05-08 19:20 41.58295 30.57286 26933 ft 424 kts 270°
2026-05-08 19:20 41.58319 30.50736 26516 ft 424 kts 270°
2026-05-08 19:20 41.58341 30.46810 26192 ft 420 kts 270°
2026-05-08 19:21 41.58374 30.42919 25817 ft 418 kts 270°
2026-05-08 19:21 41.58409 30.39042 25455 ft 416 kts 270°
2026-05-08 19:21 41.58443 30.35187 25098 ft 414 kts 270°
2026-05-08 19:21 41.58475 30.31358 24743 ft 411 kts 270°
2026-05-08 19:22 41.58507 30.27549 24394 ft 409 kts 270°
2026-05-08 19:22 41.58535 30.23766 24046 ft 407 kts 270°
2026-05-08 19:22 41.58559 30.19997 23705 ft 405 kts 270°
2026-05-08 19:22 41.58584 30.16280 23319 ft 404 kts 270°
2026-05-08 19:23 41.58620 30.12481 22908 ft 403 kts 270°
2026-05-08 19:23 41.58662 30.08796 22516 ft 401 kts 270°
2026-05-08 19:23 41.58709 30.05077 22123 ft 399 kts 270°
2026-05-08 19:23 41.58763 30.01387 21602 ft 395 kts 270°
2026-05-08 19:24 41.58824 29.97728 21072 ft 393 kts 270°
2026-05-08 19:24 41.58893 29.94094 20561 ft 390 kts 270°
2026-05-08 19:24 41.58969 29.90479 20068 ft 388 kts 270°
2026-05-08 19:24 41.59022 29.86885 19575 ft 386 kts 269°
2026-05-08 19:25 41.59066 29.83311 19078 ft 384 kts 269°
2026-05-08 19:25 41.59119 29.79756 18596 ft 382 kts 269°
2026-05-08 19:25 41.59190 29.76229 18083 ft 379 kts 269°
2026-05-08 19:25 41.59267 29.72722 17525 ft 376 kts 269°
2026-05-08 19:26 41.59343 29.69241 16962 ft 373 kts 269°
2026-05-08 19:26 41.59417 29.65783 16396 ft 371 kts 269°
2026-05-08 19:26 41.59490 29.62352 15836 ft 369 kts 269°
2026-05-08 19:26 41.59562 29.58935 15281 ft 366 kts 269°
2026-05-08 19:27 41.59633 29.55544 14734 ft 364 kts 269°
2026-05-08 19:27 41.59705 29.52168 14183 ft 363 kts 269°
2026-05-08 19:27 41.59782 29.48801 13590 ft 362 kts 269°
2026-05-08 19:27 41.59860 29.45448 13020 ft 359 kts 269°
2026-05-08 19:28 41.59941 29.42127 12491 ft 356 kts 269°
2026-05-08 19:28 41.60034 29.38830 11930 ft 354 kts 269°
2026-05-08 19:28 41.60136 29.35555 11408 ft 351 kts 269°
2026-05-08 19:28 41.60240 29.32309 10903 ft 348 kts 269°
2026-05-08 19:29 41.60266 29.29109 10588 ft 337 kts 263°
2026-05-08 19:29 41.60080 29.26056 10465 ft 323 kts 262°
2026-05-08 19:29 41.59893 29.23124 10344 ft 311 kts 262°
2026-05-08 19:29 41.59707 29.20302 10223 ft 300 kts 261°
2026-05-08 19:30 41.59523 29.17578 10100 ft 290 kts 261°
2026-05-08 19:30 41.59345 29.14961 9848 ft 285 kts 261°
2026-05-08 19:30 41.59164 29.12337 9523 ft 282 kts 261°
2026-05-08 19:30 41.58984 29.09731 9195 ft 280 kts 261°
2026-05-08 19:31 41.58804 29.07147 8866 ft 278 kts 261°
2026-05-08 19:31 41.58624 29.04583 8544 ft 276 kts 261°
2026-05-08 19:31 41.58445 29.02035 8263 ft 273 kts 261°
2026-05-08 19:31 41.58272 28.99556 8145 ft 264 kts 259°
2026-05-08 19:32 41.58107 28.97155 8025 ft 256 kts 261°
2026-05-08 19:32 41.58147 28.95592 7942 ft 255 kts 274°
2026-05-08 19:32 41.58710 28.93362 7805 ft 255 kts 293°
2026-05-08 19:32 41.59580 28.91317 7559 ft 252 kts 294°
2026-05-08 19:33 41.60441 28.89284 7284 ft 250 kts 294°
2026-05-08 19:33 41.61294 28.87272 7008 ft 248 kts 293°
2026-05-08 19:33 41.62141 28.85272 6731 ft 246 kts 293°
2026-05-08 19:33 41.62980 28.83285 6452 ft 245 kts 293°
2026-05-08 19:34 41.63710 28.81265 6165 ft 236 kts 276°
2026-05-08 19:34 41.63693 28.79179 5855 ft 221 kts 247°
2026-05-08 19:34 41.62919 28.77478 5495 ft 214 kts 220°
2026-05-08 19:34 41.61681 28.76408 5141 ft 213 kts 208°
2026-05-08 19:35 41.60391 28.75469 4919 ft 207 kts 204°
2026-05-08 19:35 41.59024 28.75044 4789 ft 199 kts 184°
2026-05-08 19:35 41.57665 28.75056 4655 ft 191 kts 181°
2026-05-08 19:35 41.56364 28.75092 4512 ft 183 kts 181°
2026-05-08 19:36 41.55100 28.75120 4264 ft 181 kts 181°
2026-05-08 19:36 41.53846 28.75145 4048 ft 180 kts 182°
2026-05-08 19:36 41.52604 28.75168 3991 ft 181 kts 182°
2026-05-08 19:36 41.51340 28.75192 4003 ft 182 kts 182°
2026-05-08 19:37 41.50072 28.75217 4000 ft 182 kts 182°
2026-05-08 19:37 41.48809 28.75241 3993 ft 182 kts 181°
2026-05-08 19:37 41.47542 28.75265 3864 ft 183 kts 181°
2026-05-08 19:37 41.46275 28.75289 3603 ft 181 kts 181°
2026-05-08 19:38 41.45021 28.75313 3368 ft 179 kts 181°
2026-05-08 19:38 41.43785 28.75337 3119 ft 176 kts 181°
2026-05-08 19:38 41.42581 28.75360 2894 ft 170 kts 181°
2026-05-08 19:38 41.41407 28.75382 2674 ft 168 kts 181°
2026-05-08 19:39 41.40244 28.75404 2447 ft 167 kts 181°
2026-05-08 19:39 41.39085 28.75426 2226 ft 167 kts 181°
2026-05-08 19:39 41.37914 28.75448 2050 ft 170 kts 181°
2026-05-08 19:39 41.36735 28.75471 1789 ft 169 kts 181°
2026-05-08 19:40 41.35559 28.75493 1544 ft 169 kts 180°
2026-05-08 19:40 41.34377 28.75515 1304 ft 168 kts 181°
2026-05-08 19:40 41.33283 28.75538 1103 ft 148 kts 181°
2026-05-08 19:40 41.32299 28.75556 922 ft 140 kts 180°
2026-05-08 19:41 41.31341 28.75574 738 ft 136 kts 179°
2026-05-08 19:41 41.30407 28.75595 581 ft 132 kts 178°
2026-05-08 19:41 41.29480 28.75627 473 ft 134 kts 179°
2026-05-08 19:41 41.28552 28.75640 334 ft 126 kts 180°
2026-05-08 19:42 41.27966 28.75642 331 ft 66 kts 180°
2026-05-08 19:42 41.27586 28.75647 332 ft 51 kts 180°
2026-05-08 19:42 41.27316 28.75651 332 ft 27 kts 179°
2026-05-08 19:42 41.27158 28.75613 334 ft 17 kts 201°
2026-05-08 19:43 41.27096 28.75575 333 ft 1 kts 207°
2026-05-08 19:43 41.27084 28.75567 334 ft 1 kts 208°
2026-05-08 19:43 41.27080 28.75564 334 ft 1 kts 208°
2026-05-08 19:43 41.27072 28.75558 334 ft 0 kts 208°
2026-05-08 19:44 41.27070 28.75557 334 ft 1 kts 208°
2026-05-08 19:44 41.27055 28.75547 334 ft 4 kts 208°
2026-05-08 19:44 41.27023 28.75524 333 ft 7 kts 208°
2026-05-08 19:44 41.26991 28.75501 334 ft 1 kts 210°
2026-05-08 19:45 41.26980 28.75492 330 ft 3 kts 211°
2026-05-08 19:45 41.26953 28.75470 332 ft 6 kts 211°
2026-05-08 19:45 41.26909 28.75435 331 ft 9 kts 210°
2026-05-08 19:45 41.26847 28.75390 332 ft 12 kts 202°
2026-05-08 19:46 41.26757 28.75374 334 ft 14 kts 180°
2026-05-08 19:46 41.26648 28.75374 332 ft 17 kts 179°
2026-05-08 19:46 41.26443 28.75379 333 ft 1 kts 181°
2026-05-08 19:47 41.26428 28.75378 333 ft 4 kts 181°
2026-05-08 19:47 41.26393 28.75378 333 ft 6 kts 179°
2026-05-08 19:47 41.26343 28.75364 332 ft 9 kts 218°
2026-05-08 19:47 41.26323 28.75304 332 ft 0 kts 250°
2026-05-08 19:48 41.26319 28.75292 332 ft 2 kts 243°
2026-05-08 19:48 41.26306 28.75276 332 ft 3 kts 215°
2026-05-08 19:48 41.26285 28.75268 334 ft 3 kts 191°
2026-05-08 19:48 41.26261 28.75256 334 ft 4 kts 213°
2026-05-08 19:49 41.26246 28.75226 332 ft 5 kts 245°
2026-05-08 19:49 41.26240 28.75185 334 ft 4 kts 263°
2026-05-08 19:49 41.26240 28.75146 334 ft 4 kts 270°
2026-05-08 19:49 41.26240 28.75099 334 ft 5 kts 269°
2026-05-08 19:50 41.26239 28.75054 334 ft 5 kts 269°
2026-05-08 19:50 41.26235 28.75015 332 ft 4 kts 249°
2026-05-08 19:50 41.26208 28.74987 333 ft 5 kts 202°
2026-05-08 19:50 41.26177 28.74986 331 ft 4 kts 173°
2026-05-08 19:51 41.26151 28.74973 334 ft 4 kts 219°
2026-05-08 19:51 41.26134 28.74932 330 ft 5 kts 249°
2026-05-08 19:51 41.26122 28.74884 330 ft 5 kts 251°
2026-05-08 19:51 41.26119 28.74873 332 ft 0 kts 251°